FENGYUN 3F

Last updated on Mon Sep 15 2025 00:02:23 GMT+0000 (Coordinated Universal Time)

1 57490U 23111A 25257.30750706 .00000032 00000+0 35857-4 0 9998 2 57490 98.7192 326.9967 0001335 111.8471 248.2847 14.19859058109713
UTC large
Height (km)
Speed (km/s)
/
Latitude / Longitude
Inclination (degrees)
Orbital Period (minutes)
Azimuth
Elevation
Range (km)
Doppler Factor

Next 0 passes for location: London (51.5072 / 0.1276)

Sorry there are no passes over London.